Weather Service Report


842 
ASUS41 KAKQ 122015
RWRAKQ

REGIONAL WEATHER ROUNDUP
NATIONAL WEATHER SERVICE WAKEFIELD VA
300 PM EST FRI FEB 12 2016

Note: "fair" indicates few or no clouds below 12,000 feet with no
significant weather and/or obstructions to visibility. * = Denotes
station may not report precipitation (e.g., rain,snow,etc.),
thunder or fog.

VAZ042-051-052>054-056-122100-
NORTHERN VIRGINIA
  
CITY           SKY/WX    TMP DP  RH WIND       PRES   REMARKS
WASH NATIONAL  CLOUDY    31  10  41 S9        30.07F                  
DULLES         CLOUDY    29   6  38 S8        30.04F                  
FORT BELVOIR   CLOUDY    30   6  36 S7        30.06F                  
QUANTICO       CLOUDY    31  10  41 S9        30.08F                  
FREDERICKSBRG* FAIR      30   9  41 S9        30.05F                  
STAFFORD*      FAIR      30   6  36 S6        30.09F                  
WARRENTON      PTSUNNY   31  12  46 S7        30.02F                  
CULPEPER*      CLOUDY    29   7  39 SW9       30.04F                  
MANASSAS*      MOSUNNY   30  10  43 S9        30.05F                  
LEESBURG*      CLOUDY    32  12  43 S5        30.04F                  
WINCHESTER     CLOUDY    32  10  40 SE3       29.99F                  
FRONT ROYAL*   CLOUDY    32  10  40 CALM      29.97F                  
LURAY*         FAIR      32  10  40 SW8       29.95F                  
$$

VAZ048-049-060>072-079>083-122100-
CENTRAL AND SOUTH CENTRAL VIRGINIA
  
CITY           SKY/WX    TMP DP  RH WIND       PRES   REMARKS
RICHMOND       CLOUDY    28  12  51 S8        30.08F                  
CHESTERFIELD*  CLOUDY    28   3  34 S10       30.09F WCI  19          
PETERSBURG*    CLOUDY    31   9  40 W3        30.09F                  
HANOVER        CLOUDY    29  10  45 VRB5      30.09F                  
TAPPAHANNOCK*  CLOUDY    30   6  36 SE3       30.09F                  
QUINTON*       CLOUDY    29  13  52 SE5       30.09F                  
CHARLOTTSVILLE CLOUDY    33   7  33 S10       30.00F WCI  25          
GORDONSVILLE*  CLOUDY    31   8  38 SW3       30.01F                  
ORANGE*        CLOUDY    32   9  37 S8        30.04F                  
LOUISA*        CLOUDY    30   9  40 S6        30.02F                  
BUMPASS*       CLOUDY    30   8  39 S3        30.05F                  
FARMVILLE*     CLOUDY    30  15  53 S6        30.04F                  
CREWE*         CLOUDY    28  13  52 CALM      30.07F                  
FORT PICKETT*  NOT AVBL                                               
CHASE CITY*    CLOUDY    26  19  76 CALM      30.06F                  
CLARKSVILLE*   CLOUDY    30  19  64 E5        30.06F                  
SOUTH HILL*    CLOUDY    26  21  79 CALM      30.12F                  
LAWRENCEVILLE* CLOUDY    26  22  85 CALM      30.08F                  
EMPORIA*       CLOUDY    28  19  69 NW5       30.11F                  
$$

VAZ088>098-122100-
SOUTHEAST VIRGINIA
  
CITY           SKY/WX    TMP DP  RH WIND       PRES   REMARKS
NORFOLK        LGT SNOW  28  18  66 CALM      30.10F                  
VIRGINIA BEACH LGT SNOW  31  22  69 SE3       30.10F VSB 1            
NORFOLK NAVAL  LGT SNOW  28  21  75 E6        30.10F VSB 3/4          
WEST POINT*    CLOUDY    30  11  46 SW5       30.12F                  
SALUDA*        CLOUDY    28  17  64 SE5       30.10F                  
NEWPORT NEWS   LGT SNOW  27  19  72 SE5       30.10F                  
LANGLEY AFB    LGT SNOW  27  21  80 E5        30.08F                  
FORT EUSTIS    MIX PCPN  28  19  69 SE5       30.07F                  
WILLIAMSBURG*  CLOUDY    34  19  55 CALM      30.10F                  
HR EXEC AP*    CLOUDY    28  18  64 S6        30.11F                  
FRANKLIN*      FLURRIES  29  17  59 S7        30.10F                  
US460-WAKEFLD  LGT SNOW  28  23  81 S5        30.08F                  
$$

VAZ020-022-025-037-045-122100-
WEST CENTRAL AND SOUTHWEST VIRGINIA
  
CITY           SKY/WX    TMP DP  RH WIND       PRES   REMARKS
STAUNTON*      PTSUNNY   36  13  39 S10G18    29.95F                  
WAYNESBORO*    CLOUDY    32   8  36 S5        29.93F                  
HOT SPRINGS VA LGT SNOW  22  21  93 W13       29.78F WCI  10          
LYNCHBURG      CLOUDY    27  14  58 S8        30.02F                  
DANVILLE       PTSUNNY   31  17  56 NE3       30.06F                  
SOUTH BOSTON*  CLOUDY    28  18  65 CALM      30.07F                  
MARTINSVILLE   PTSUNNY   30  14  52 S3        30.05F                  
ROANOKE        PTSUNNY   30  16  56 SE6       30.00F                  
BLACKSBURG     FLURRIES  32  21  64 SW6       29.96F                  
DUBLIN*        LGT SNOW  31  26  79 SW6       29.93F                  
MARION*        FLURRIES  31  27  86 W16G23    29.93F WCI  19          
HILLSVILLE*    LGT SNOW  28  22  78 SW6       29.90F                  
RICHLANDS*     CLOUDY    28  24  84 W8        29.92F                  
WISE*          CLOUDY    30  23  74 SW10      29.95F WCI  21          
ABINGDON*      FLURRIES  32  28  84 W9        29.98F                  
$$

MDZ021>025-VAZ099-100-122100-
SOUTHERN MARYLAND AND THE DELMARVA PENINSULA
  
CITY           SKY/WX    TMP DP  RH WIND       PRES   REMARKS
PATUXENT RIVER CLOUDY    29  10  45 SE12      30.09F WCI  19          
BAY BRIDGE APT   N/A     28   5  37 CALM      30.09F                  
LEONARDTOWN      N/A     30   9  40 MISG        N/A                   
DOVER          MOSUNNY   28   9  44 VRB5      30.07F                  
GEORGETOWN     PTSUNNY   29   6  38 SW6       30.09F                  
EASTON         NOT AVBL                                               
CAMBRIDGE      MOSUNNY   28   9  43 S8        30.08F                  
SALISBURY      MOSUNNY   31   7  36 SW8       30.09F                  
OCEAN CITY     MOSUNNY   26   9  48 S7        30.11F                  
WALLOPS ISLAND PTSUNNY   27  10  49 S8        30.12F                  
ACCOMACK*      CLOUDY    28   9  43 S7        30.11F                  
$$

NCZ012>017-030>032-122100-
NORTH CENTRAL AND EASTERN NORTH CAROLINA
  
CITY           SKY/WX    TMP DP  RH WIND       PRES   REMARKS
ROANOKE RAPIDS FLURRIES  30  19  64 E7        30.09F                  
RALEIGH        FLURRIES  29  20  69 CALM      30.07F                  
ELIZABETH CITY LGT SNOW  28  26  92 NE9       30.09F VSB 3/4          
AHOSKIE*       NOT AVBL                                               
EDENTON*       MIX PCPN  31  29  93 NE6       30.09F VSB 3/4          
CURRITUCK*     LGT SNOW  29  27  93 NE3       30.10F VSB 3/4          
KILL DEVIL HLS SNOW      31  28  87 NE3       30.05F VSB 1/2          
MANTEO         LGT SNOW  31  30  99 NE8       30.07F                  
CAPE HATTERAS  LGT RAIN  34  33  96 NE14G26   30.01F WCI  25          
TARBORO*       LGT SNOW  30  26  86 N5        30.09F                  
GOLDSBORO      FRZ RAIN  30  30 100 N6        30.06F                  
WASHINGTON     LGT SNOW  30  27  90 NE8       30.07F                  
GREENVILLE     LGT SNOW  32  30  93 NE3       30.09F                  
NEW BERN       MIX PCPN  32  29  88 N10       30.08R FOG     WCI  24  
WILMINGTON     CLOUDY    36  31  82 N8        30.03F                  
$$

VAZ048-122100-
ELSEWHERE
  
CITY           SKY/WX    TMP DP  RH WIND       PRES   REMARKS
HARRISBURG PA  CLOUDY    24   6  46 SW8       30.05F                  
BALTIMORE      CLOUDY    26   7  44 E10       30.07F WCI  16          
ANNAPOLIS      CLOUDY    27  11  51 SE14      30.08F WCI  16          
ANDREWS AFB    CLOUDY    30   8  38 SW6       30.04F                  
PHILADELPHIA   CLOUDY    25   1  35 W6        30.10F                  
HENDERSON NC   CLOUDY    31   7  36 CALM      30.05F                  
GREENSBORO     CLOUDY    35  12  38 CALM      30.02F                  
ROCKY MOUNT    LGT SNOW  28  24  85 NE5       30.08F FOG              
$$

VAZ100-122100-
MARINE
  
STATION/POSITION TIME  TEMP    WIND        PRES    WAVE   SWELL
                       AIR SEA DIR/SP/G            HT/PER HT/PER
                 (UTC) (F)     (DEG/KT/KT) (MB)    (FT/S) (FT/S)
BRANDYWINE LGT   1900   24     110/  2/  5 1020.7F
CAPE MAY NJ      1900   25 36  200/  5/  8 1020.5F
LEWES DE         1900   27 37  310/  3/  5 1020.3F
15NM E FENWICK I 1950   26 42              1020.2F   1/ 6
OCEAN-CITY-INLET 1900   26 41  170/  4/  6 1019.9F
WACHAPREAGUE VA  1900   27 37  190/  3/  6 1020.8F
THOMAS POINT MD  2000   25 36  170/ 11     1019.3F
GOOSES REEF MD   2000   26 38  150/ 12/ 14 1019.8F   1/ 2
COVE POINT MD    1900   24     180/ 11/ 13 1020.8F
SOLOMONS ISLAND  1900   28 40  190/  4/  8   N/A
BISHOPS HEAD MD  1900   25 34  150/  7/  8 1019.7F
PINEY POINT MD   1900          160/  9/ 10   N/A
POTOMAC MD       2000   27 39  150/  8/ 12 1018.3F
CAMBRIDGE MD     1900   26 36   20/  5/  6 1019.4F
LEWISETTA VA     1900   26 38  110/  8/ 10 1020.3F
RAPPAHANNOCK LGT 1900          210/  4/  6 1020.8F
STINGRAY PT      2000   27 40  180/  6/ 12 1019.4F   0
YORK RVR RNG VA  1900   27     150/  6/ 10 1020.0F
YORKTOWN VA      1906   28 40  140/  6/  8 1020.3F
JAMESTOWN VA     2000   27 41  130/  6/ 10   N/A     0
DOMINION TERM VA 1900   29      90/  4/  7 1020.6F
KIPTOPEKE VA     1900      40  120/  4/  9   N/A
CHES BAY BRIDGE  1900   29 41   80/  7/ 10 1020.4F
CAPE HENRY VA    1900   28     130/  6/  9   N/A
CHESAPEAKE LGHT  1900   29     120/  5/  7 1021.4F
WILLOUBY STN VA  1900   28      90/  7/  9 1021.4F
CAPE HENRY BUOY  1928      42                N/A     1/ 5
1ST LANDING BUOY 2000      41                N/A     1/ 3
CAPE CHARLES BUO 1926      42                N/A     1/11   2/11
OFFSHORE WE BUOY 1921      45                N/A     2/ 9   2/ 9
64NM E OF VA BCH 1950   30 48   40/  4/  6 1019.7F   2/ 6   2/ 6
DUCK PIER NC     1900   30      80/  8/ 10 1019.4F
44100 DUCK FRF   1924      45                N/A     3/ 5
44056 DUCK FRF   1911      42                N/A     2/ 5
OREGON INLET NC  1900   31 40   20/  9/ 12 1019.4F
HATTERAS NC      1900   35 47   20/ 15/ 22 1017.1F
DIAMOND SHLS NC  1950   46 59   20/ 21/ 29 1014.6F   4/ 7   2/14
$$
  

Return to Home page


Western Regional Climate Center, wrcc@dri.edu